| time (UTC) | temp F | wind direction | speed MPH | gust MPH | rain 1hr in | rain 24hr in | rain mn in | humidity % | barometer mb |
| 20260831181745 | 87 | 223 | 3.0 | 11.0 | 0.00 | 0.00 | 0.00 | 25 | 1017.8 |
| 20260831181255 | 87 | 271 | 4.0 | 11.0 | 0.00 | 0.00 | 0.00 | 28 | 1017.9 |
| 20260831180756 | 87 | 202 | 5.0 | 11.0 | 0.00 | 0.00 | 0.00 | 28 | 1017.9 |
| 20260831180256 | 87 | 210 | 3.0 | 12.0 | 0.00 | 0.00 | 0.00 | 28 | 1017.9 |
| 20260831175756 | 86 | 236 | 2.0 | 12.0 | 0.00 | 0.00 | 0.00 | 27 | 1017.6 |
| 20260831174755 | 86 | 226 | 2.0 | 11.0 | 0.00 | 0.00 | 0.00 | 29 | 1017.6 |
| 20260831173755 | 85 | 225 | 3.0 | 11.0 | 0.00 | 0.00 | 0.00 | 27 | 1017.5 |
| 20260831172756 | 85 | 251 | 2.0 | 11.0 | 0.00 | 0.00 | 0.00 | 28 | 1017.4 |
| 20260831172255 | 86 | 212 | 5.0 | 11.0 | 0.00 | 0.00 | 0.00 | 26 | 1017.4 |
| 20260831171755 | 85 | 232 | 2.0 | 11.0 | 0.00 | 0.00 | 0.00 | 24 | 1017.3 |
| 20260831171255 | 86 | 234 | 3.0 | 8.0 | 0.00 | 0.00 | 0.00 | 20 | 1017.3 |
| 20260831170755 | 85 | 250 | 1.0 | 11.0 | 0.00 | 0.00 | 0.00 | 20 | 1017.2 |
| 20260831170255 | 85 | 185 | 5.0 | 11.0 | 0.00 | 0.00 | 0.00 | 18 | 1017.2 |
| 20260831165744 | 85 | 202 | 1.0 | 8.0 | 0.00 | 0.00 | 0.00 | 20 | 1017.0 |
| 20260831165255 | 84 | 238 | 5.0 | 10.0 | 0.00 | 0.00 | 0.00 | 18 | 1017.1 |
| 20260831164755 | 83 | 251 | 4.0 | 10.0 | 0.00 | 0.00 | 0.00 | 17 | 1016.8 |
| 20260831163754 | 83 | 236 | 3.0 | 10.0 | 0.00 | 0.00 | 0.00 | 16 | 1016.8 |
| 20260831162754 | 83 | 202 | 0.0 | 8.0 | 0.00 | 0.00 | 0.00 | 18 | 1016.8 |
| 20260831162254 | 83 | 257 | 4.0 | 9.0 | 0.00 | 0.00 | 0.00 | 18 | 1016.8 |
| 20260831161754 | 82 | 240 | 3.0 | 9.0 | 0.00 | 0.00 | 0.00 | 18 | 1016.8 |
| 20260831161254 | 82 | 238 | 4.0 | 7.0 | 0.00 | 0.00 | 0.00 | 16 | 1016.7 |
| 20260831160755 | 82 | 230 | 0.0 | 5.0 | 0.00 | 0.00 | 0.00 | 16 | 1016.7 |
| 20260831160254 | 81 | 238 | 1.0 | 6.0 | 0.00 | 0.00 | 0.00 | 17 | 1016.5 |
| 20260831155255 | 80 | 245 | 0.0 | 6.0 | 0.00 | 0.00 | 0.00 | 16 | 1016.6 |
| 20260831154254 | 80 | 242 | 1.0 | 7.0 | 0.00 | 0.00 | 0.00 | 16 | 1016.5 |
| 20260831153754 | 79 | 241 | 0.0 | 3.0 | 0.00 | 0.00 | 0.00 | 19 | 1016.5 |
| 20260831151754 | 74 | 82 | 0.0 | 0.0 | 0.00 | 0.00 | 0.00 | 22 | 1015.8 |
| 20260831151254 | 73 | 73 | 0.0 | 0.0 | 0.00 | 0.00 | 0.00 | 25 | 1015.8 |
| 20260831150754 | 72 | 68 | 0.0 | 0.0 | 0.00 | 0.00 | 0.00 | 25 | 1015.6 |
| 20260831150254 | 70 | 68 | 0.0 | 1.0 | 0.00 | 0.00 | 0.00 | 26 | 1015.3 |
| 20260831145754 | 68 | 68 | 0.0 | 7.0 | 0.00 | 0.00 | 0.00 | 27 | 1015.4 |
| 20260831145254 | 67 | 67 | 0.0 | 7.0 | 0.00 | 0.00 | 0.00 | 28 | 1015.5 |
| 20260831144753 | 66 | 74 | 4.0 | 7.0 | 0.00 | 0.00 | 0.00 | 28 | 1015.2 |
| 20260831144253 | 64 | 65 | 3.0 | 6.0 | 0.00 | 0.00 | 0.00 | 30 | 1014.9 |
| 20260831143753 | 63 | 70 | 2.0 | 6.0 | 0.00 | 0.00 | 0.00 | 31 | 1014.9 |
| 20260831143243 | 62 | 80 | 2.0 | 8.0 | 0.00 | 0.00 | 0.00 | 31 | 1014.7 |
| 20260831142753 | 61 | 57 | 3.0 | 8.0 | 0.00 | 0.00 | 0.00 | 32 | 1014.7 |
| 20260831141753 | 59 | 34 | 3.0 | 7.0 | 0.00 | 0.00 | 0.00 | 33 | 1014.4 |
| 20260831141253 | 58 | 98 | 3.0 | 7.0 | 0.00 | 0.00 | 0.00 | 34 | 1014.0 |
| 20260831140753 | 57 | 60 | 4.0 | 8.0 | 0.00 | 0.00 | 0.00 | 34 | 1014.0 |
| 20260831140253 | 57 | 45 | 5.0 | 8.0 | 0.00 | 0.00 | 0.00 | 34 | 1014.0 |
| 20260831135753 | 57 | 71 | 5.0 | 8.0 | 0.00 | 0.00 | 0.00 | 34 | 1014.7 |
| 20260831135254 | 57 | 51 | 4.0 | 8.0 | 0.00 | 0.00 | 0.00 | 33 | 1014.7 |
| 20260831134753 | 56 | 57 | 5.0 | 7.0 | 0.00 | 0.00 | 0.00 | 33 | 1014.4 |
| 20260831134252 | 56 | 44 | 5.0 | 7.0 | 0.00 | 0.00 | 0.00 | 33 | 1014.4 |
| 20260831133754 | 56 | 70 | 4.0 | 7.0 | 0.00 | 0.00 | 0.00 | 33 | 1014.4 |
| 20260831133242 | 56 | 69 | 4.0 | 8.0 | 0.00 | 0.00 | 0.00 | 34 | 1014.2 |
| 20260831132753 | 56 | 48 | 5.0 | 8.0 | 0.00 | 0.00 | 0.00 | 34 | 1014.1 |
| 20260831132253 | 56 | 72 | 5.0 | 8.0 | 0.00 | 0.00 | 0.00 | 34 | 1014.0 |
| 20260831131752 | 55 | 80 | 3.0 | 6.0 | 0.00 | 0.00 | 0.00 | 34 | 1014.0 |
| 20260831130752 | 55 | 71 | 4.0 | 7.0 | 0.00 | 0.00 | 0.00 | 34 | 1013.9 |
| 20260831130252 | 55 | 82 | 5.0 | 7.0 | 0.00 | 0.00 | 0.00 | 34 | 1013.9 |
| 20260831125752 | 55 | 75 | 3.0 | 7.0 | 0.00 | 0.00 | 0.00 | 34 | 1014.6 |
| 20260831125252 | 55 | 51 | 3.0 | 6.0 | 0.00 | 0.00 | 0.00 | 33 | 1014.4 |
| 20260831124752 | 56 | 51 | 4.0 | 6.0 | 0.00 | 0.00 | 0.00 | 34 | 1014.5 |
| 20260831124252 | 56 | 44 | 3.0 | 6.0 | 0.00 | 0.00 | 0.00 | 33 | 1014.4 |
| 20260831123752 | 56 | 58 | 4.0 | 6.0 | 0.00 | 0.00 | 0.00 | 33 | 1014.4 |
| 20260831123252 | 56 | 64 | 5.0 | 6.0 | 0.00 | 0.00 | 0.00 | 33 | 1014.4 |
| 20260831122752 | 56 | 59 | 5.0 | 6.0 | 0.00 | 0.00 | 0.00 | 33 | 1014.4 |
| 20260831122252 | 56 | 51 | 4.0 | 7.0 | 0.00 | 0.00 | 0.00 | 32 | 1014.3 |
| 20260831121752 | 56 | 62 | 5.0 | 8.0 | 0.00 | 0.00 | 0.00 | 32 | 1014.3 |
| 20260831120241 | 56 | 77 | 5.0 | 8.0 | 0.00 | 0.00 | 0.00 | 32 | 1014.3 |
| 20260831115752 | 56 | 57 | 3.0 | 9.0 | 0.00 | 0.00 | 0.00 | 32 | 1014.7 |
| 20260831114752 | 56 | 73 | 8.0 | 8.0 | 0.00 | 0.00 | 0.00 | 32 | 1014.7 |
| 20260831114252 | 57 | 60 | 3.0 | 8.0 | 0.00 | 0.00 | 0.00 | 32 | 1014.9 |
| 20260831113752 | 57 | 58 | 3.0 | 8.0 | 0.00 | 0.00 | 0.00 | 32 | 1015.0 |
| 20260831113240 | 57 | 54 | 6.0 | 10.0 | 0.00 | 0.00 | 0.00 | 32 | 1014.9 |
| 20260831112751 | 57 | 28 | 6.0 | 10.0 | 0.00 | 0.00 | 0.00 | 33 | 1014.9 |
| 20260831111751 | 57 | 58 | 6.0 | 7.0 | 0.00 | 0.00 | 0.00 | 33 | 1015.0 |
| 20260831110751 | 57 | 55 | 3.0 | 8.0 | 0.00 | 0.00 | 0.00 | 34 | 1015.0 |
| 20260831110240 | 57 | 44 | 6.0 | 7.0 | 0.00 | 0.00 | 0.00 | 34 | 1014.9 |
| 20260831105751 | 57 | 54 | 3.0 | 7.0 | 0.00 | 0.00 | 0.00 | 34 | 1015.2 |
| 20260831105251 | 57 | 29 | 5.0 | 7.0 | 0.00 | 0.00 | 0.00 | 35 | 1015.2 |
| 20260831104751 | 57 | 36 | 3.0 | 7.0 | 0.00 | 0.00 | 0.00 | 35 | 1015.2 |
| 20260831103750 | 57 | 70 | 3.0 | 8.0 | 0.00 | 0.00 | 0.00 | 35 | 1015.3 |
| 20260831103239 | 57 | 42 | 5.0 | 8.0 | 0.00 | 0.00 | 0.00 | 36 | 1015.3 |
| 20260831102751 | 57 | 84 | 4.0 | 8.0 | 0.00 | 0.00 | 0.00 | 37 | 1015.3 |
| 20260831102251 | 57 | 61 | 3.0 | 8.0 | 0.00 | 0.00 | 0.00 | 37 | 1015.3 |
| 20260831100750 | 58 | 62 | 4.0 | 8.0 | 0.00 | 0.00 | 0.00 | 38 | 1015.5 |
| 20260831100250 | 58 | 48 | 4.0 | 7.0 | 0.00 | 0.00 | 0.00 | 38 | 1015.4 |
| 20260831095750 | 58 | 69 | 5.0 | 7.0 | 0.00 | 0.00 | 0.00 | 38 | 1015.5 |
| 20260831095250 | 58 | 68 | 4.0 | 8.0 | 0.00 | 0.00 | 0.00 | 38 | 1015.6 |
| 20260831094750 | 58 | 70 | 4.0 | 8.0 | 0.00 | 0.00 | 0.00 | 39 | 1015.6 |
| 20260831094250 | 58 | 68 | 5.0 | 8.0 | 0.00 | 0.00 | 0.00 | 40 | 1015.6 |
| 20260831093750 | 58 | 63 | 5.0 | 7.0 | 0.00 | 0.00 | 0.00 | 40 | 1015.6 |
| 20260831093250 | 58 | 73 | 5.0 | 8.0 | 0.00 | 0.00 | 0.00 | 40 | 1015.7 |
| 20260831092750 | 58 | 64 | 3.0 | 8.0 | 0.00 | 0.00 | 0.00 | 40 | 1015.7 |
| 20260831092249 | 58 | 73 | 4.0 | 8.0 | 0.00 | 0.00 | 0.00 | 40 | 1015.7 |
| 20260831091750 | 58 | 80 | 7.0 | 8.0 | 0.00 | 0.00 | 0.00 | 40 | 1015.8 |
| 20260831090750 | 58 | 45 | 5.0 | 9.0 | 0.00 | 0.00 | 0.00 | 40 | 1015.9 |
| 20260831090239 | 59 | 65 | 3.0 | 9.0 | 0.00 | 0.00 | 0.00 | 40 | 1016.1 |
| 20260831085749 | 59 | 73 | 4.0 | 8.0 | 0.00 | 0.00 | 0.00 | 41 | 1016.1 |
| 20260831085249 | 58 | 74 | 5.0 | 9.0 | 0.00 | 0.00 | 0.00 | 40 | 1015.9 |
| 20260831084749 | 58 | 67 | 6.0 | 9.0 | 0.00 | 0.00 | 0.00 | 39 | 1016.1 |
| 20260831084249 | 59 | 74 | 4.0 | 8.0 | 0.00 | 0.00 | 0.00 | 39 | 1016.3 |
| 20260831083749 | 59 | 61 | 5.0 | 8.0 | 0.00 | 0.00 | 0.00 | 39 | 1016.3 |
| 20260831083238 | 59 | 31 | 4.0 | 8.0 | 0.00 | 0.00 | 0.00 | 40 | 1016.3 |
| 20260831082749 | 59 | 79 | 3.0 | 8.0 | 0.00 | 0.00 | 0.00 | 40 | 1016.3 |
| 20260831082249 | 59 | 59 | 4.0 | 7.0 | 0.00 | 0.00 | 0.00 | 40 | 1016.4 |
| 20260831081749 | 59 | 69 | 4.0 | 7.0 | 0.00 | 0.00 | 0.00 | 40 | 1016.4 |
| 20260831081249 | 59 | 57 | 5.0 | 8.0 | 0.00 | 0.00 | 0.00 | 40 | 1016.4 |
| 20260831080749 | 59 | 61 | 5.0 | 8.0 | 0.00 | 0.00 | 0.00 | 40 | 1016.4 |
| 20260831080249 | 59 | 70 | 3.0 | 8.0 | 0.00 | 0.00 | 0.00 | 40 | 1016.4 |
| 20260831075749 | 59 | 55 | 5.0 | 8.0 | 0.00 | 0.00 | 0.00 | 40 | 1016.4 |
| 20260831075248 | 59 | 63 | 5.0 | 8.0 | 0.00 | 0.00 | 0.00 | 40 | 1016.4 |
| 20260831074748 | 59 | 44 | 4.0 | 8.0 | 0.00 | 0.00 | 0.00 | 40 | 1016.5 |
| 20260831074248 | 59 | 51 | 4.0 | 7.0 | 0.00 | 0.00 | 0.00 | 40 | 1016.4 |
| 20260831073749 | 59 | 67 | 5.0 | 7.0 | 0.00 | 0.00 | 0.00 | 40 | 1016.4 |
| 20260831073238 | 59 | 40 | 5.0 | 6.0 | 0.00 | 0.00 | 0.00 | 40 | 1016.4 |
| 20260831072248 | 60 | 64 | 4.0 | 6.0 | 0.00 | 0.00 | 0.00 | 39 | 1016.3 |
| 20260831071738 | 60 | 49 | 3.0 | 6.0 | 0.00 | 0.00 | 0.00 | 39 | 1016.4 |
| 20260831070748 | 61 | 42 | 3.0 | 7.0 | 0.00 | 0.00 | 0.00 | 38 | 1016.7 |
| 20260831070248 | 61 | 51 | 3.0 | 7.0 | 0.00 | 0.00 | 0.00 | 38 | 1016.7 |
| 20260831065748 | 61 | 75 | 5.0 | 8.0 | 0.00 | 0.00 | 0.00 | 39 | 1016.7 |
| 20260831065248 | 61 | 49 | 4.0 | 8.0 | 0.00 | 0.00 | 0.00 | 40 | 1016.7 |
| 20260831064748 | 61 | 78 | 5.0 | 8.0 | 0.00 | 0.00 | 0.00 | 41 | 1016.7 |
| 20260831064248 | 61 | 61 | 5.0 | 7.0 | 0.00 | 0.00 | 0.00 | 41 | 1016.7 |
| 20260831063748 | 61 | 50 | 4.0 | 7.0 | 0.00 | 0.00 | 0.00 | 41 | 1016.7 |
| 20260831063237 | 61 | 77 | 4.0 | 7.0 | 0.00 | 0.00 | 0.00 | 42 | 1016.7 |
| 20260831061747 | 61 | 44 | 3.0 | 7.0 | 0.00 | 0.00 | 0.00 | 42 | 1016.6 |
| 20260831061248 | 61 | 52 | 3.0 | 7.0 | 0.00 | 0.00 | 0.00 | 43 | 1016.6 |
| 20260831060748 | 61 | 55 | 3.0 | 5.0 | 0.00 | 0.00 | 0.00 | 42 | 1016.5 |
| 20260831060237 | 61 | 55 | 3.0 | 7.0 | 0.00 | 0.00 | 0.00 | 42 | 1016.5 |
| 20260831055747 | 61 | 57 | 2.0 | 7.0 | 0.00 | 0.00 | 0.00 | 42 | 1016.5 |
| 20260831055247 | 61 | 55 | 2.0 | 7.0 | 0.00 | 0.00 | 0.00 | 42 | 1016.4 |
| 20260831054747 | 62 | 64 | 3.0 | 5.0 | 0.00 | 0.00 | 0.00 | 43 | 1016.4 |
| 20260831054247 | 62 | 74 | 3.0 | 5.0 | 0.00 | 0.00 | 0.00 | 43 | 1016.4 |
| 20260831053748 | 62 | 70 | 4.0 | 6.0 | 0.00 | 0.00 | 0.00 | 42 | 1016.4 |
| 20260831053236 | 62 | 52 | 2.0 | 6.0 | 0.00 | 0.00 | 0.00 | 42 | 1016.3 |
| 20260831052747 | 62 | 51 | 5.0 | 7.0 | 0.00 | 0.00 | 0.00 | 43 | 1016.3 |
| 20260831052247 | 62 | 43 | 4.0 | 7.0 | 0.00 | 0.00 | 0.00 | 43 | 1016.3 |
| 20260831051747 | 62 | 39 | 4.0 | 6.0 | 0.00 | 0.00 | 0.00 | 43 | 1016.3 |
| 20260831051247 | 62 | 39 | 5.0 | 5.0 | 0.00 | 0.00 | 0.00 | 44 | 1016.3 |
| 20260831050247 | 62 | 55 | 2.0 | 5.0 | 0.00 | 0.00 | 0.00 | 44 | 1016.3 |
| 20260831045747 | 62 | 52 | 3.0 | 5.0 | 0.00 | 0.00 | 0.00 | 45 | 1016.1 |
| 20260831045247 | 63 | 66 | 3.0 | 5.0 | 0.00 | 0.00 | 0.00 | 45 | 1016.1 |
| 20260831044747 | 63 | 63 | 2.0 | 5.0 | 0.00 | 0.00 | 0.00 | 45 | 1016.0 |
| 20260831044247 | 63 | 53 | 3.0 | 5.0 | 0.00 | 0.00 | 0.00 | 46 | 1015.9 |
| 20260831043236 | 63 | 33 | 3.0 | 6.0 | 0.00 | 0.00 | 0.00 | 46 | 1015.9 |
| 20260831042246 | 64 | 71 | 4.0 | 7.0 | 0.00 | 0.00 | 0.00 | 46 | 1016.3 |
| 20260831041747 | 64 | 68 | 4.0 | 7.0 | 0.00 | 0.00 | 0.00 | 47 | 1016.3 |
| 20260831041246 | 64 | 66 | 2.0 | 7.0 | 0.00 | 0.00 | 0.00 | 48 | 1016.3 |
| 20260831040746 | 65 | 76 | 4.0 | 7.0 | 0.00 | 0.00 | 0.00 | 49 | 1016.3 |
| 20260831040246 | 65 | 76 | 3.0 | 7.0 | 0.00 | 0.00 | 0.00 | 50 | 1016.3 |
| 20260831035746 | 65 | 53 | 3.0 | 7.0 | 0.00 | 0.00 | 0.00 | 50 | 1015.9 |
| 20260831034246 | 65 | 76 | 5.0 | 7.0 | 0.00 | 0.00 | 0.00 | 51 | 1015.6 |
| 20260831033746 | 66 | 65 | 2.0 | 5.0 | 0.00 | 0.00 | 0.00 | 49 | 1015.6 |
| 20260831032746 | 67 | 59 | 2.0 | 5.0 | 0.00 | 0.00 | 0.00 | 48 | 1015.8 |
| 20260831031746 | 67 | 61 | 4.0 | 6.0 | 0.00 | 0.00 | 0.00 | 48 | 1015.6 |
| 20260831031245 | 68 | 74 | 4.0 | 5.0 | 0.00 | 0.00 | 0.00 | 48 | 1015.7 |
| 20260831030745 | 69 | 71 | 2.0 | 5.0 | 0.00 | 0.00 | 0.00 | 47 | 1015.9 |
| 20260831030245 | 69 | 59 | 4.0 | 4.0 | 0.00 | 0.00 | 0.00 | 47 | 1015.8 |
| 20260831025245 | 70 | 317 | 1.0 | 3.0 | 0.00 | 0.00 | 0.00 | 45 | 1014.6 |
| 20260831024745 | 71 | 253 | 0.0 | 3.0 | 0.00 | 0.00 | 0.00 | 45 | 1015.0 |
| 20260831024245 | 72 | 252 | 0.0 | 0.0 | 0.00 | 0.00 | 0.00 | 44 | 1014.9 |
| 20260831023745 | 73 | 252 | 0.0 | 0.0 | 0.00 | 0.00 | 0.00 | 43 | 1015.2 |
| 20260831023245 | 73 | 252 | 0.0 | 0.0 | 0.00 | 0.00 | 0.00 | 42 | 1015.0 |
| 20260831022745 | 74 | 252 | 0.0 | 0.0 | 0.00 | 0.00 | 0.00 | 42 | 1015.0 |
| 20260831022245 | 75 | 252 | 0.0 | 0.0 | 0.00 | 0.00 | 0.00 | 41 | 1015.2 |
| 20260831021245 | 76 | 252 | 0.0 | 0.0 | 0.00 | 0.00 | 0.00 | 40 | 1015.1 |
| 20260831020745 | 76 | 253 | 0.0 | 0.0 | 0.00 | 0.00 | 0.00 | 37 | 1015.1 |
| 20260831020245 | 77 | 253 | 0.0 | 0.0 | 0.00 | 0.00 | 0.00 | 37 | 1015.2 |
| 20260831014745 | 78 | 253 | 0.0 | 5.0 | 0.00 | 0.00 | 0.00 | 36 | 1014.1 |
| 20260831014245 | 79 | 252 | 3.0 | 7.0 | 0.00 | 0.00 | 0.00 | 35 | 1014.1 |
| 20260831013744 | 79 | 225 | 3.0 | 8.0 | 0.00 | 0.00 | 0.00 | 35 | 1014.2 |
| 20260831013244 | 80 | 249 | 2.0 | 8.0 | 0.00 | 0.00 | 0.00 | 32 | 1014.2 |
| 20260831012744 | 80 | 249 | 4.0 | 9.0 | 0.00 | 0.00 | 0.00 | 31 | 1014.2 |
| 20260831012244 | 81 | 237 | 1.0 | 9.0 | 0.00 | 0.00 | 0.00 | 30 | 1014.3 |
| 20260831011744 | 82 | 244 | 3.0 | 9.0 | 0.00 | 0.00 | 0.00 | 28 | 1014.3 |
| 20260831011244 | 82 | 232 | 0.0 | 9.0 | 0.00 | 0.00 | 0.00 | 28 | 1014.3 |
| 20260831010744 | 83 | 248 | 0.0 | 10.0 | 0.00 | 0.00 | 0.00 | 27 | 1014.5 |
| 20260831010244 | 83 | 254 | 7.0 | 10.0 | 0.00 | 0.00 | 0.00 | 27 | 1014.5 |
| 20260831005744 | 83 | 244 | 2.0 | 9.0 | 0.00 | 0.00 | 0.00 | 27 | 1014.3 |
| 20260831005244 | 83 | 238 | 4.0 | 10.0 | 0.00 | 0.00 | 0.00 | 26 | 1014.3 |
| 20260831004244 | 84 | 261 | 2.0 | 11.0 | 0.00 | 0.00 | 0.00 | 26 | 1014.3 |
| 20260831003744 | 84 | 246 | 9.0 | 12.0 | 0.00 | 0.00 | 0.00 | 26 | 1014.5 |
| 20260831003244 | 85 | 228 | 9.0 | 12.0 | 0.00 | 0.00 | 0.00 | 25 | 1014.5 |
| 20260831002744 | 85 | 250 | 5.0 | 12.0 | 0.00 | 0.00 | 0.00 | 25 | 1014.5 |
| 20260831002244 | 86 | 198 | 3.0 | 10.0 | 0.00 | 0.00 | 0.00 | 25 | 1014.8 |
| 20260831001744 | 86 | 212 | 4.0 | 11.0 | 0.00 | 0.00 | 0.00 | 24 | 1014.8 |
| 20260831001232 | 86 | 241 | 8.0 | 12.0 | 0.00 | 0.00 | 0.00 | 25 | 1014.8 |
| 20260831000243 | 87 | 249 | 9.0 | 13.0 | 0.00 | 0.00 | 0.00 | 25 | 1014.7 |
| 20260830235743 | 89 | 233 | 11.0 | 13.0 | 0.00 | 0.00 | 0.00 | 24 | 1015.1 |
| 20260830235243 | 89 | 238 | 6.0 | 12.0 | 0.00 | 0.00 | 0.00 | 24 | 1015.0 |
| 20260830234743 | 89 | 253 | 10.0 | 12.0 | 0.00 | 0.00 | 0.00 | 24 | 1015.1 |
| 20260830234243 | 89 | 209 | 3.0 | 12.0 | 0.00 | 0.00 | 0.00 | 23 | 1015.0 |
| 20260830233743 | 89 | 215 | 3.0 | 12.0 | 0.00 | 0.00 | 0.00 | 23 | 1015.1 |
| 20260830233243 | 89 | 267 | 2.0 | 11.0 | 0.00 | 0.00 | 0.00 | 23 | 1015.0 |
| 20260830232743 | 90 | 215 | 5.0 | 11.0 | 0.00 | 0.00 | 0.00 | 22 | 1015.2 |
| 20260830232243 | 90 | 269 | 6.0 | 12.0 | 0.00 | 0.00 | 0.00 | 22 | 1015.2 |
| 20260830231743 | 90 | 202 | 8.0 | 12.0 | 0.00 | 0.00 | 0.00 | 23 | 1015.3 |
| 20260830231242 | 90 | 227 | 7.0 | 13.0 | 0.00 | 0.00 | 0.00 | 23 | 1015.2 |
| 20260830230742 | 90 | 230 | 2.0 | 13.0 | 0.00 | 0.00 | 0.00 | 23 | 1015.2 |
| 20260830230243 | 90 | 236 | 6.0 | 12.0 | 0.00 | 0.00 | 0.00 | 22 | 1015.0 |
| 20260830225742 | 90 | 221 | 6.0 | 12.0 | 0.00 | 0.00 | 0.00 | 23 | 1015.1 |
| 20260830225243 | 91 | 242 | 6.0 | 13.0 | 0.00 | 0.00 | 0.00 | 22 | 1015.3 |
| 20260830224743 | 91 | 247 | 3.0 | 13.0 | 0.00 | 0.00 | 0.00 | 23 | 1015.3 |
| 20260830224243 | 91 | 229 | 4.0 | 16.0 | 0.00 | 0.00 | 0.00 | 23 | 1015.3 |
| 20260830223743 | 91 | 223 | 7.0 | 16.0 | 0.00 | 0.00 | 0.00 | 24 | 1015.3 |
| 20260830223243 | 91 | 244 | 7.0 | 12.0 | 0.00 | 0.00 | 0.00 | 24 | 1015.3 |
| 20260830222743 | 90 | 227 | 6.0 | 12.0 | 0.00 | 0.00 | 0.00 | 25 | 1015.2 |
| 20260830222242 | 90 | 209 | 11.0 | 12.0 | 0.00 | 0.00 | 0.00 | 25 | 1015.1 |
| 20260830221242 | 92 | 208 | 8.0 | 11.0 | 0.00 | 0.00 | 0.00 | 25 | 1015.4 |
| 20260830220242 | 91 | 233 | 5.0 | 15.0 | 0.00 | 0.00 | 0.00 | 26 | 1015.6 |
| 20260830215242 | 92 | 264 | 6.0 | 11.0 | 0.00 | 0.00 | 0.00 | 26 | 1015.6 |
| 20260830214742 | 92 | 259 | 9.0 | 15.0 | 0.00 | 0.00 | 0.00 | 27 | 1015.7 |
| 20260830214242 | 92 | 234 | 3.0 | 15.0 | 0.00 | 0.00 | 0.00 | 28 | 1015.7 |
| 20260830213744 | 92 | 188 | 3.0 | 13.0 | 0.00 | 0.00 | 0.00 | 29 | 1015.8 |
| 20260830212241 | 91 | 222 | 5.0 | 13.0 | 0.00 | 0.00 | 0.00 | 30 | 1015.8 |
| 20260830211741 | 91 | 228 | 5.0 | 14.0 | 0.00 | 0.00 | 0.00 | 32 | 1015.9 |
| 20260830211241 | 90 | 277 | 1.0 | 16.0 | 0.00 | 0.00 | 0.00 | 32 | 1015.8 |
| 20260830205741 | 92 | 247 | 8.0 | 14.0 | 0.00 | 0.00 | 0.00 | 30 | 1016.5 |
| 20260830205241 | 92 | 242 | 4.0 | 14.0 | 0.00 | 0.00 | 0.00 | 30 | 1016.4 |
| 20260830204741 | 92 | 240 | 5.0 | 13.0 | 0.00 | 0.00 | 0.00 | 30 | 1016.5 |
| 20260830204241 | 92 | 240 | 3.0 | 14.0 | 0.00 | 0.00 | 0.00 | 30 | 1016.6 |
| 20260830203741 | 93 | 241 | 5.0 | 14.0 | 0.00 | 0.00 | 0.00 | 30 | 1016.7 |
| 20260830203241 | 93 | 190 | 3.0 | 14.0 | 0.00 | 0.00 | 0.00 | 31 | 1016.7 |
| 20260830202740 | 93 | 227 | 6.0 | 14.0 | 0.00 | 0.00 | 0.00 | 31 | 1016.6 |
| 20260830202241 | 92 | 209 | 5.0 | 13.0 | 0.00 | 0.00 | 0.00 | 31 | 1016.6 |
| 20260830201740 | 93 | 229 | 4.0 | 13.0 | 0.00 | 0.00 | 0.00 | 30 | 1016.7 |
| 20260830200741 | 91 | 178 | 2.0 | 12.0 | 0.00 | 0.00 | 0.00 | 31 | 1016.6 |
| 20260830195740 | 91 | 223 | 1.0 | 13.0 | 0.00 | 0.00 | 0.00 | 30 | 1016.9 |
| 20260830195241 | 92 | 225 | 2.0 | 15.0 | 0.00 | 0.00 | 0.00 | 29 | 1016.9 |
| 20260830194740 | 92 | 245 | 2.0 | 15.0 | 0.00 | 0.00 | 0.00 | 29 | 1016.9 |
| 20260830194240 | 92 | 257 | 5.0 | 10.0 | 0.00 | 0.00 | 0.00 | 29 | 1016.7 |
| 20260830193741 | 91 | 238 | 6.0 | 12.0 | 0.00 | 0.00 | 0.00 | 30 | 1016.8 |
| 20260830193240 | 92 | 222 | 7.0 | 13.0 | 0.00 | 0.00 | 0.00 | 30 | 1017.0 |
| 20260830192740 | 92 | 249 | 4.0 | 13.0 | 0.00 | 0.00 | 0.00 | 29 | 1016.8 |
| 20260830192240 | 92 | 296 | 2.0 | 12.0 | 0.00 | 0.00 | 0.00 | 28 | 1016.8 |
| 20260830191740 | 92 | 268 | 3.0 | 12.0 | 0.00 | 0.00 | 0.00 | 28 | 1016.9 |
| 20260830191240 | 91 | 254 | 7.0 | 13.0 | 0.00 | 0.00 | 0.00 | 29 | 1017.0 |
| 20260830190240 | 92 | 298 | 4.0 | 12.0 | 0.00 | 0.00 | 0.00 | 27 | 1017.1 |
| 20260830185740 | 92 | 215 | 1.0 | 16.0 | 0.00 | 0.00 | 0.00 | 28 | 1017.3 |
| 20260830185240 | 91 | 234 | 6.0 | 16.0 | 0.00 | 0.00 | 0.00 | 28 | 1017.1 |
| 20260830184739 | 91 | 249 | 7.0 | 11.0 | 0.00 | 0.00 | 0.00 | 28 | 1017.2 |
| 20260830184240 | 92 | 208 | 11.0 | 11.0 | 0.00 | 0.00 | 0.00 | 28 | 1017.5 |
| 20260830183739 | 91 | 219 | 0.0 | 14.0 | 0.00 | 0.00 | 0.00 | 28 | 1017.2 |
| 20260830182739 | 91 | 221 | 0.0 | 15.0 | 0.00 | 0.00 | 0.00 | 28 | 1017.2 |
| 20260830182239 | 91 | 239 | 9.0 | 15.0 | 0.00 | 0.00 | 0.00 | 27 | 1017.3 |